Regional Weather Roundup
Issued by NWS Sterling, VA

Home | Current Version | Previous Version | Graphics & Text | Print | Product List | Glossary On
Versions: 1 2 3 4 5 6 7 8 9 10 11 12 13 14 15 16 17 18 19 20 21 22 23 24 25 26 27 28 29 30 31 32 33 34 35 36 37 38 39 40 41 42 43 44 45 46 47 48 49 50
273
ASUS41 KLWX 260610
RWRLWX

REGIONAL WEATHER ROUNDUP
NATIONAL WEATHER SERVICE BALTIMORE MD/WASHINGTON DC
100 AM EST SUN FEB 26 2017

Note: "FAIR" indicates few or no clouds below 12,000 feet
with no significant weather and/or obstructions to visibility.
 TC=TEMPERATURE CELSIUS

 * =Non NWS site. Station does not report precipitation (e.g. rain,
    snow, etc.), thunder, or fog.

DCZ001-MDZ009-015-VAZ040>042-051-053>054-260700-
WASHINGTON METRO

CITY           SKY/WX    TMP DP  RH WIND       PRES   REMARKS
WASHINGTON NAT MOCLDY    44  23  43 NW18G28   29.89R
DULLES         PTCLDY    40  21  46 NW18G25   29.90R
ANDREWS AFB    PTCLDY    42  23  46 W14G24    29.87R
FT BELVOIR     MOCLDY    42  22  44 NW12      29.90R
QUANTICO       CLEAR     43  22  43 N18G30    29.92R
COLLEGE PARK*  CLOUDY    41  23  48 NW10      29.89R
LEESBURG*      CLOUDY    41  28  60 MISG      29.90R
MANASSAS*      PTCLDY    40  22  48 NW12      29.91R
GAITHERSBURG*  MOCLDY    39  19  45 NW12G29   29.92R

$$

MDZ006>007-011-014-260700-
BALTIMORE METRO

CITY           SKY/WX    TMP DP  RH WIND       PRES   REMARKS
BWI AIRPORT    MOCLDY    41  24  51 W16G26    29.87R
MD SCIENCE CTR   N/A     44  21  40 MISG      29.87R
MARTIN STATE   MOCLDY    43  27  52 W20       29.88R
ANNAPOLIS      MOCLDY    45  25  45 NW15G24   29.87R
FORT MEADE*    CLOUDY    41  27  56 NW14      29.91R

$$

MDZ012-015-019>023-260700-
MARYLAND EASTERN SHORE

CITY           SKY/WX    TMP DP  RH WIND       PRES   REMARKS
OCEAN CITY     CLEAR     47  29  49 NW12G25   29.80R
SALISBURY      PTCLDY    46  29  51 NW14G21   29.82R
BAY BRIDGE AP* PTCLDY    43  27  52 NW16G24   29.88R
CAMBRIDGE*     CLEAR     45  28  53 NW15G25   29.85R
EASTON*        PTCLDY    44  25  47 N18G24    29.89R

$$

MDZ017>025-260700-
SOUTHERN MARYLAND

CITY           SKY/WX    TMP DP  RH WIND       PRES   REMARKS
PATUXENT RIVER CLEAR     44  27  51 NW28G35   29.85R
ST INIGOES     CLEAR     45  25  45 NW12G21   29.85R
LEONARDTOWN*   CLEAR     43  23  45 NW12G20   29.88R

$$

MDZ003>005-260700-
NORTH CENTRAL MARYLAND

CITY           SKY/WX    TMP DP  RH WIND       PRES   REMARKS
FREDERICK*     PTCLDY    36  23  60 NW21G33   29.93R WCI  24
HAGERSTOWN APT CLOUDY    37  22  54 W17       29.89R WCI  27
WESTMINSTER*   CLOUDY    37  23  56 W14G24    29.86R WCI  29

$$

MDZ501>502-260700-
WESTERN MARYLAND

CITY           SKY/WX    TMP DP  RH WIND       PRES   REMARKS
OAKLAND*       CLOUDY    21  14  73 W18G29    29.84R WCI   6
CUMBERLAND*    CLOUDY    34  19  55 W20G31    29.99R WCI  22

$$

VAZ025>031-260700-
SHENANDOAH VALLEY

CITY           SKY/WX    TMP DP  RH WIND       PRES   REMARKS
WINCHESTER*    MOCLDY    34  19  55 NW23G31   29.89R WCI  22
FRONT ROYAL*   CLOUDY    37  23  56 NW9       29.89R
LURAY*         CLOUDY    37  23  56 W8        29.89R
NEW MARKET*    PTCLDY    35  15  44 NW7       29.91R
STAUNTON*      CLEAR     31  19  62 NW7       29.91R
WAYNESBORO*    CLEAR     34  18  51 CALM      29.88R

$$

WVZ021-048>050-054>055-260700-
EASTERN WEST VIRGINIA PANHANDLE

CITY           SKY/WX    TMP DP  RH WIND       PRES   REMARKS
MARTINSBURG    CLOUDY    37  20  50 NW20G25   29.90R WCI  27
PETERSBURG*    CLOUDY    36  22  56 W10       29.95R WCI  28

$$

VAZ036>039-050-260700-
CENTRAL FOOTHILLS

CITY           SKY/WX    TMP DP  RH WIND       PRES   REMARKS
CHARLOTTESVILL CLEAR     41  20  43 CALM      29.89R
CULPEPER*      CLEAR     41  22  46 NW8       29.91R
ORANGE*        CLEAR     39  21  48 CALM      29.91R
GORDONSVILLE*  CLEAR     41  22  47 W3        29.90R
WARRENTON*     CLEAR     40  18  40 NW12      29.90R

$$

VAZ055>057-260700-
NORTH AND CENTRAL PIEDMONT

CITY           SKY/WX    TMP DP  RH WIND       PRES   REMARKS
FREDERICKSBRG* CLEAR     44  25  47 N10G21    29.89R
STAFFORD*      CLEAR     39  24  53 NW14G21   29.94R

$$

NCZ024-NYZ072-PAZ021-071-VAZ022-071-260700-
OTHER REGIONAL OBSERVATIONS

CITY           SKY/WX    TMP DP  RH WIND       PRES   REMARKS
NEW YORK CITY  CLOUDY    43  32  65 VRB6G20   29.72R
PHILADELPHIA   PTCLDY    45  25  45 NW18G25   29.79R
PITTSBURGH     FLURRIES  27  17  66 W20       29.98R WCI  13
ROANOKE        CLEAR     36  17  46 W16G25    29.97R WCI  26
RICHMOND       CLEAR     47  22  37 NW14      29.87R
RALEIGH        CLEAR     49  16  26 NW10G20   29.92R

$$

ANZ530>537-260700-
MARINE OBSERVATIONS

STATION/POSITION TIME  TEMP    WIND        PRES
                       AIR SEA DIR/SP/G
                 (UTC) (F)     (DEG/KT/KT) (MB)
THOMAS PT LIGHT  0600   44 44  320/ 18/ 21   N/A
BALT KEY BRIDGE  0548   43     310/ 20/ 24 1011.0R
COVE POINT       0548   44     340/ 28/ 33 1011.1R
LEWISETTA        0548   47 48  340/ 14/ 22 1010.9R
SOLOMONS ISLAND  0542   45 44  320/ 17/ 26   N/A
PINEY POINT      0548          350/ 26/ 30   N/A

$$





USA.gov is the U.S. government's official web portal to all federal, state and local government web resources and services.